Theta_e
306 306 306 306 306 308 309 309 309 309 310 310 312 312 312 312 314 324 325 321 320 319 317 321 323 323 322 323 324 325 327 334 334 329 330 331 332 336 337 340 338 343 337 340 346
307 307 307 308 309 309 309 309 309 309 310 311 312 312 312 313 318 325 322 319 317 317 319 323 324 325 323 325 324 326 330 335 332 329 328 329 330 335 334 335 339 343 342 339 345
308 308 309 309 309 309 309 309 309 309 310 312 312 312 313 313 325 326 316 317 317 317 320 323 324 324 324 326 326 328 331 335 329 327 327 327 328 330 331 332 337 337 336 348 344
308 308 309 309 309 309 309 309 309 310 311 312 313 313 313 318 329 322 316 317 318 318 321 324 325 325 325 325 327 327 330 329 328 327 326 326 328 329 330 332 336 336 346 343 347
308 307 308 308 308 308 309 309 310 311 312 313 313 314 316 328 327 319 318 318 318 321 323 324 325 326 326 326 327 327 330 328 327 326 326 328 327 328 329 330 335 336 344 340 336
309 309 308 309 309 310 311 312 313 313 313 313 314 313 325 328 323 320 322 321 322 323 323 324 325 325 326 325 326 328 329 327 327 327 327 328 328 328 330 332 332 329 340 343 339
312 312 311 312 312 313 313 314 315 315 314 314 314 316 324 326 323 322 321 321 322 322 323 324 323 324 325 325 326 327 327 327 327 327 327 326 325 327 330 329 328 328 329 338 339
309 310 314 314 314 314 314 315 315 315 316 315 314 319 329 322 322 322 322 323 322 322 322 322 322 323 324 325 325 324 326 328 328 327 326 326 325 331 330 330 329 328 343 351 345
310 310 312 314 314 314 314 314 314 316 316 315 317 323 330 322 323 322 322 323 323 322 321 321 322 323 325 324 324 325 325 327 327 327 327 326 326 330 330 330 330 330 353 351 343
310 310 311 313 315 315 315 318 323 318 318 320 321 326 327 325 323 321 322 322 322 323 324 325 325 325 325 324 326 326 325 326 326 328 328 327 326 328 330 331 331 338 352 346 341
310 310 311 314 315 316 320 322 327 328 329 329 328 328 324 324 323 323 322 323 324 325 327 327 327 328 327 326 325 326 326 326 327 328 328 328 327 328 330 333 334 339 350 344 339
310 310 311 314 317 319 319 329 327 327 328 328 325 325 325 325 325 324 324 325 326 328 326 328 329 326 325 325 326 327 327 329 329 327 327 327 327 328 331 337 337 349 347 342 338
310 310 311 314 317 319 326 326 326 326 331 327 325 325 324 325 326 325 325 326 327 327 327 329 328 326 325 327 327 329 330 329 327 326 327 328 328 329 337 342 341 344 342 338 337
310 310 311 313 318 326 328 325 326 327 334 325 324 325 325 325 325 324 324 326 326 327 326 327 327 325 326 328 328 329 329 328 328 328 328 328 328 337 342 335 334 342 339 337 336
311 311 311 312 319 327 327 325 325 328 346 327 325 326 326 326 326 325 324 326 327 327 327 330 328 328 330 329 328 328 328 328 327 327 328 325 332 334 343 339 344 340 335 331 327
311 314 312 320 320 323 323 324 326 334 341 329 326 325 325 325 325 326 326 326 326 326 327 328 327 327 327 327 327 328 326 326 327 328 328 331 331 347 349 347 341 334 329 325 322
311 316 314 317 325 324 324 327 332 334 335 329 325 325 325 325 325 325 327 328 328 330 333 332 330 329 330 330 328 326 328 327 329 330 323 325 332 349 341 338 336 333 327 322 317
311 318 324 320 323 324 326 330 332 333 331 329 327 326 326 327 326 326 326 327 330 329 329 332 336 333 331 329 328 326 327 328 331 330 323 331 335 346 335 332 332 328 323 318 318
312 322 326 325 323 325 329 331 330 333 331 329 329 326 326 327 327 329 328 328 331 330 330 330 332 330 329 328 326 328 329 328 331 329 330 330 346 340 336 334 332 328 323 320 318
318 324 326 322 325 326 331 331 329 330 329 327 328 330 330 331 331 329 332 332 331 330 330 330 332 330 328 326 327 329 325 328 331 330 327 326 334 338 336 338 331 327 324 321 320
325 327 326 323 325 327 331 329 326 326 326 328 329 332 331 329 331 330 332 333 331 331 329 330 332 329 325 327 327 328 327 328 328 329 330 329 333 331 332 333 330 325 322 321 320
328 326 325 322 326 328 328 329 319 324 325 326 327 329 329 332 333 331 334 334 329 327 330 332 331 329 328 326 329 329 330 329 328 328 327 328 333 331 329 329 328 323 322 321 320
328 325 323 322 331 331 326 325 323 323 324 326 328 328 329 330 331 330 330 329 327 330 332 330 329 330 328 326 330 329 330 328 328 329 327 327 337 330 328 325 324 323 322 321 320
329 327 328 325 325 331 329 326 324 324 322 324 325 327 328 328 328 329 328 330 330 328 325 328 331 333 332 328 326 326 325 325 329 332 329 332 333 332 328 326 324 323 322 321 317
327 328 328 330 332 329 327 327 326 324 324 325 326 326 326 330 330 331 331 331 330 329 328 335 334 329 327 326 324 324 325 328 330 330 334 332 333 329 325 324 323 321 320 318 317
321 325 327 323 326 326 322 326 326 325 325 328 328 329 328 332 333 334 332 333 335 332 333 333 330 326 325 324 324 325 329 330 330 331 332 331 329 324 323 320 322 319 318 317 315
320 322 323 322 325 324 325 327 326 326 325 325 328 327 332 331 328 327 327 327 327 327 328 331 329 328 329 329 330 331 331 329 330 330 329 329 325 324 322 323 322 320 318 315 313
Wind_Speed
4 4 4 5 5 4 5 7 8 9 11 12 13 15 19 24 25 7 9 2 4 8 8 11 14 12 15 14 17 16 12 11 18 2 7 9 7 8 6 10 11 9 19 20 21
3 3 4 4 4 5 6 8 9 10 11 12 13 16 21 24 19 16 6 4 6 8 8 16 16 7 11 14 7 13 8 10 10 10 10 4 1 12 4 7 9 18 21 30 29
3 4 4 4 5 6 7 9 10 11 11 12 14 18 20 23 10 3 3 5 7 8 12 20 12 11 16 11 10 15 11 16 5 9 9 12 9 3 10 10 4 13 27 24 21
5 5 6 6 7 8 9 9 10 10 11 12 15 19 23 7 3 5 5 6 7 10 15 22 13 13 14 4 14 10 4 7 10 8 6 10 9 8 6 3 10 16 27 11 13
6 6 7 7 8 9 9 10 10 11 11 12 14 18 11 7 7 9 6 4 8 11 21 15 11 12 11 8 2 10 13 4 3 6 3 10 8 8 12 8 13 8 27 20 18
6 7 7 8 9 9 10 11 11 11 11 12 14 16 6 14 7 8 7 7 11 16 17 11 9 12 10 7 7 6 12 8 4 2 6 4 15 15 2 10 13 14 18 23 28
7 7 7 8 9 10 10 11 11 11 12 12 13 10 10 14 3 7 7 11 7 9 10 9 10 13 14 11 5 8 10 13 12 5 3 4 17 11 12 8 9 11 15 4 13
10 8 8 9 10 11 12 13 13 13 13 12 12 6 8 3 5 9 10 9 7 8 8 11 10 13 13 14 8 10 12 15 11 7 7 3 11 12 9 10 12 13 19 27 24
14 10 9 9 10 11 12 13 13 13 13 11 8 8 13 4 8 9 12 11 5 8 9 10 12 14 15 14 14 13 10 16 10 6 1 7 10 10 8 7 10 8 21 24 22
16 13 9 9 9 10 10 8 6 7 7 7 13 9 14 2 4 2 7 6 8 10 9 10 11 14 15 12 8 14 8 7 1 12 8 9 15 11 6 7 6 10 19 21 21
19 15 10 8 10 9 6 4 5 5 11 13 4 12 4 6 6 9 6 10 13 11 14 18 12 4 14 11 10 13 10 9 9 8 8 9 13 9 8 5 5 7 18 19 20
21 17 9 8 10 13 9 6 7 9 10 21 6 8 4 4 4 4 3 12 12 12 4 11 3 11 7 7 9 10 10 12 12 15 13 15 19 18 8 13 10 17 17 18 18
22 17 9 8 10 14 13 6 9 8 7 7 8 10 8 10 5 8 8 7 11 7 7 8 9 5 6 10 7 12 11 12 14 16 17 20 17 20 19 26 30 27 23 20 18
23 15 9 8 9 13 9 6 10 6 5 9 8 4 4 7 5 4 4 8 5 9 6 6 9 5 7 4 8 8 12 14 16 17 16 19 15 12 18 23 20 8 17 16 17
23 13 8 7 13 12 7 9 8 5 5 14 9 8 8 9 7 6 3 7 11 10 6 3 8 8 10 14 9 12 14 14 21 21 20 19 3 3 17 16 15 14 16 16 15
22 12 8 7 9 12 9 12 7 6 5 7 5 7 8 9 4 6 5 4 3 8 5 3 1 4 9 7 11 8 17 20 21 19 13 0 4 9 12 17 15 13 14 13 11
19 8 6 8 8 11 12 10 6 8 8 7 6 7 13 9 2 2 4 6 5 5 3 11 4 6 3 10 12 15 16 9 12 9 11 12 4 9 14 16 15 10 9 9 10
15 7 7 8 10 9 10 8 8 3 4 8 7 2 9 9 4 1 5 10 5 7 10 9 5 11 5 9 11 16 12 8 14 12 15 13 6 5 11 13 16 14 11 11 11
11 9 9 2 6 7 7 8 6 11 12 8 7 7 10 6 6 5 9 5 5 9 7 10 4 15 5 2 9 7 8 14 11 16 11 0 8 7 6 8 13 13 11 11 10
13 14 3 4 3 7 6 13 7 5 6 7 11 9 9 4 10 10 8 9 4 5 7 9 10 13 16 16 8 8 14 6 10 9 12 14 8 8 2 13 13 11 11 11 10
5 5 6 3 5 5 8 5 2 9 7 6 11 14 9 12 3 12 2 6 8 7 8 9 7 12 16 14 10 12 11 10 6 7 10 10 6 15 18 17 8 12 16 12 8
8 4 6 3 6 6 5 7 4 8 6 6 6 11 11 13 10 9 11 9 4 7 9 10 4 8 17 20 13 8 10 5 4 8 8 11 4 12 13 11 7 12 13 7 4
7 8 5 3 4 5 5 4 3 6 4 7 7 4 9 7 7 8 5 9 4 7 5 9 6 9 12 7 9 6 8 9 11 6 9 11 4 9 5 7 11 9 7 7 5
5 4 3 2 4 7 10 5 2 4 10 4 9 9 7 10 9 6 13 7 7 10 4 3 5 11 12 17 18 18 15 15 10 3 16 9 5 4 6 8 10 11 9 8 9
4 4 4 5 8 9 5 9 7 5 2 3 7 7 9 8 11 8 7 11 6 1 0 4 9 12 15 18 19 19 15 13 17 14 8 8 15 17 10 10 7 5 6 8 7
5 5 8 9 5 8 1 7 7 4 2 9 3 6 7 7 12 11 8 7 7 9 7 8 10 14 17 18 19 17 9 9 14 12 10 11 9 5 13 9 4 6 12 12 13
13 11 5 6 5 7 5 1 2 8 1 5 9 10 10 10 7 8 7 3 7 7 8 8 9 10 14 17 18 5 11 12 10 12 8 7 4 7 6 13 12 12 12 13 13
Wind_Direction
301 293 292 286 293 297 301 303 306 305 302 306 315 323 322 322 321 296 244 132 223 276 271 276 248 251 240 258 247 256 265 339 292 324 109 128 262 325 106 141 235 152 152 200 166
327 299 290 293 301 305 301 299 300 301 304 312 320 321 320 327 320 267 232 215 245 254 278 269 275 227 250 240 223 247 241 215 320 35 339 12 270 189 205 218 191 144 167 186 169
312 303 298 297 294 292 291 294 298 301 309 315 317 316 319 327 286 118 162 205 227 254 275 284 284 277 263 255 239 241 269 220 72 31 345 326 309 200 312 302 187 100 299 140 164
299 296 294 293 293 289 289 294 297 303 306 308 314 316 321 303 320 97 119 178 231 259 271 274 255 253 253 237 245 277 339 359 1 14 313 272 321 344 277 324 167 197 129 174 11
304 295 290 288 285 285 290 292 296 298 300 306 314 320 337 244 244 128 138 202 248 252 259 280 281 252 278 221 215 257 285 102 40 272 295 355 297 294 319 356 166 164 149 145 127
315 298 290 287 286 287 288 290 292 294 297 302 311 324 282 279 93 147 176 209 250 241 287 289 342 348 303 324 284 230 277 301 251 59 265 301 311 312 341 353 340 331 175 142 171
329 302 294 288 286 286 287 289 289 290 291 297 306 326 270 268 268 174 206 234 268 290 295 353 328 306 313 267 229 309 277 254 224 189 40 2 281 280 36 11 324 308 301 171 93
353 323 299 288 286 288 288 285 284 282 281 287 298 292 265 347 255 215 233 247 237 258 271 292 294 287 280 291 276 241 251 267 210 131 132 225 304 80 41 352 329 333 59 64 64
1 344 315 298 295 292 287 285 279 271 268 274 284 215 266 151 218 202 230 250 248 268 268 273 272 263 260 242 247 216 243 242 146 130 37 288 292 128 103 23 324 337 69 67 65
3 352 327 310 305 299 297 289 279 263 261 249 263 271 252 205 57 208 228 265 268 261 244 227 244 244 230 237 346 344 267 352 114 82 36 326 302 300 57 55 348 44 68 71 74
0 354 333 312 307 299 301 268 214 212 231 257 205 244 145 109 184 212 184 201 235 245 251 214 243 329 21 13 334 319 337 329 318 49 2 307 290 276 255 120 42 74 82 81 73
357 353 336 303 300 296 281 255 21 314 291 226 252 285 296 315 203 162 227 244 223 254 260 252 251 55 0 350 307 305 308 21 332 358 333 305 286 270 149 90 50 79 79 69 74
354 350 333 293 285 279 250 6 316 312 274 172 201 218 184 239 288 140 232 283 282 258 315 323 72 37 302 284 354 340 10 7 328 318 298 283 295 308 103 59 51 19 63 58 58
352 346 327 303 287 253 241 330 331 3 271 143 187 210 160 238 192 356 290 297 260 330 344 310 58 324 280 18 20 340 5 324 306 302 293 297 285 96 84 78 84 89 55 62 58
347 339 318 299 305 310 343 314 342 285 303 157 142 119 192 240 123 150 294 277 290 9 279 63 12 341 16 22 1 316 321 306 309 292 281 280 7 138 113 93 98 75 67 63 51
342 332 305 283 259 265 316 312 283 239 301 136 151 191 206 226 205 110 220 292 340 296 273 357 144 293 19 321 326 329 346 309 289 275 263 151 255 60 29 95 82 74 66 66 67
337 318 301 297 310 323 314 284 233 253 232 144 187 186 210 158 191 236 183 236 318 307 64 261 139 76 345 349 353 352 317 321 321 347 322 335 1 71 87 90 103 101 86 96 96
332 290 276 261 305 317 295 261 270 289 35 29 343 216 278 133 215 101 269 263 117 326 322 356 98 277 59 8 342 320 338 319 326 319 302 343 341 96 111 103 97 106 117 108 89
327 275 248 237 312 310 279 242 259 2 18 354 307 273 227 176 250 194 244 281 87 360 355 326 291 355 103 2 314 341 329 319 291 278 298 159 80 90 83 110 109 106 93 89 91
333 291 209 312 304 287 270 271 312 24 346 305 280 319 300 112 280 243 29 2 50 14 0 319 320 326 321 336 360 262 339 325 335 329 307 316 101 54 69 136 104 106 100 108 85
295 247 81 300 258 257 254 334 34 77 329 317 310 328 327 313 283 318 115 90 26 38 329 347 3 320 317 312 341 333 330 339 351 316 318 332 40 39 38 95 63 98 89 91 78
300 290 55 328 250 236 264 7 356 316 325 291 297 299 311 329 331 335 60 70 39 350 350 59 332 300 315 303 43 339 318 323 313 314 318 306 314 29 52 67 122 99 104 94 62
310 305 90 278 275 293 133 289 346 316 318 320 307 326 321 319 315 305 15 97 56 56 39 0 346 318 318 290 85 284 254 298 307 337 284 299 25 50 43 82 80 115 135 78 15
283 301 150 220 309 303 357 282 164 136 287 291 291 318 288 287 277 248 278 83 68 73 61 26 299 301 304 323 317 312 315 312 5 90 295 49 42 143 207 97 76 46 64 59 54
276 33 15 330 26 340 348 325 307 280 158 284 300 249 292 310 296 301 59 79 116 124 35 57 300 317 309 304 303 291 324 20 289 21 49 22 43 10 32 33 57 47 85 68 19
337 349 346 288 323 290 192 271 293 331 2 324 266 345 312 27 23 33 16 37 140 249 349 347 310 306 300 292 292 304 76 329 38 32 51 68 77 22 313 341 73 36 46 19 23
7 331 280 302 241 262 275 157 12 7 79 319 345 324 48 34 10 3 347 324 328 331 344 337 312 307 296 314 304 355 5 28 75 59 19 3 240 222 314 55 41 30 23 22 25